Location: *
(49.0044°N, 9.5056°E)
Time: 15:55:30
(UTC+00:00)

Ariane Rocket - Pass Details

Date: 22 September 2019
Orbit: 761 x 769 km, 98.8° (Epoch: 21 October)

Event Time Altitude Azimuth Distance (km) Brightness Sun altitude
Rises 18:51:25 0° 184° (S) 3,214 6.1 -15.4°
Reaches altitude 10° 18:53:50 10° 191° (SSW) 2,294 5.4 -15.8°
Maximum altitude 18:58:36 41° 262° (W) 1,102 4.3 -16.5°
Drops below altitude 10° 19:03:24 10° 332° (NNW) 2,316 6.2 -17.3°
Sets 19:05:52 0° 340° (NNW) 3,249 6.9 -17.7°
